TimeEST,TemperatureF,Dew PointF,Humidity,Sea Level PressureIn,VisibilityMPH,Wind Direction,Wind SpeedMPH,Gust SpeedMPH,PrecipitationIn,Events,Conditions,WindDirDegrees,DateUTC
12:53 AM,71.1,69.1,93,30.00,10.0,SSE,4.6,-,N/A,,Clear,150,2012-12-29 05:53:00
1:53 AM,73.0,71.1,93,29.98,10.0,SSE,5.8,-,N/A,,Clear,160,2012-12-29 06:53:00
2:53 AM,73.0,71.1,93,29.96,10.0,SSE,5.8,-,N/A,,Clear,160,2012-12-29 07:53:00
3:53 AM,73.0,71.1,93,29.96,10.0,Calm,Calm,-,N/A,,Clear,0,2012-12-29 08:53:00
4:53 AM,71.1,70.0,96,29.96,10.0,Calm,Calm,-,N/A,,Clear,0,2012-12-29 09:53:00
5:28 AM,71.6,69.8,94,29.99,10.0,Calm,Calm,-,N/A,,Mostly Cloudy,0,2012-12-29 10:28:00
5:53 AM,71.1,70.0,96,29.99,10.0,Calm,Calm,-,N/A,,Mostly Cloudy,0,2012-12-29 10:53:00
6:33 AM,71.6,69.8,94,30.00,10.0,Calm,Calm,-,N/A,,Partly Cloudy,0,2012-12-29 11:33:00
6:53 AM,70.0,70.0,100,30.01,8.0,SSE,3.5,-,N/A,,Clear,150,2012-12-29 11:53:00
7:53 AM,70.0,69.1,97,30.03,7.0,SE,3.5,-,N/A,,Clear,140,2012-12-29 12:53:00
8:53 AM,75.0,72.0,90,30.05,10.0,SSW,5.8,-,N/A,,Clear,200,2012-12-29 13:53:00
9:40 AM,78.8,73.4,83,30.06,10.0,SSW,6.9,-,N/A,,Mostly Cloudy,210,2012-12-29 14:40:00
9:53 AM,75.9,73.0,91,30.06,10.0,SW,8.1,17.3,N/A,,Overcast,230,2012-12-29 14:53:00
10:53 AM,81.0,71.1,72,30.05,10.0,SW,12.7,-,N/A,,Mostly Cloudy,230,2012-12-29 15:53:00
11:08 AM,80.6,69.8,70,30.04,10.0,SSW,8.1,-,N/A,,Scattered Clouds,210,2012-12-29 16:08:00
11:53 AM,82.9,71.1,67,30.02,10.0,SW,12.7,-,N/A,,Mostly Cloudy,230,2012-12-29 16:53:00
12:09 PM,82.4,71.6,70,30.01,10.0,WSW,13.8,-,N/A,,Mostly Cloudy,240,2012-12-29 17:09:00
12:18 PM,82.4,71.6,70,30.01,10.0,WSW,10.4,-,N/A,,Mostly Cloudy,240,2012-12-29 17:18:00
12:25 PM,82.4,71.6,70,30.00,10.0,SW,12.7,19.6,N/A,,Mostly Cloudy,230,2012-12-29 17:25:00
12:53 PM,82.9,71.1,67,30.00,10.0,WSW,13.8,17.3,N/A,,Mostly Cloudy,240,2012-12-29 17:53:00
1:07 PM,82.4,71.6,70,30.00,10.0,West,11.5,-,N/A,,Mostly Cloudy,260,2012-12-29 18:07:00
1:21 PM,82.4,69.8,66,29.99,10.0,WSW,17.3,-,N/A,,Scattered Clouds,250,2012-12-29 18:21:00
1:53 PM,82.9,70.0,65,29.98,10.0,WSW,11.5,-,N/A,,Scattered Clouds,250,2012-12-29 18:53:00
2:53 PM,82.9,69.1,63,29.97,10.0,West,16.1,-,N/A,,Scattered Clouds,260,2012-12-29 19:53:00
3:53 PM,81.0,69.1,67,29.97,10.0,WSW,13.8,-,N/A,,Scattered Clouds,250,2012-12-29 20:53:00
4:53 PM,80.1,66.9,64,29.98,10.0,West,15.0,-,N/A,,Partly Cloudy,260,2012-12-29 21:53:00
5:38 PM,78.8,68.0,69,29.99,10.0,WSW,10.4,-,N/A,,Overcast,250,2012-12-29 22:38:00
5:53 PM,77.0,68.0,74,29.99,10.0,WSW,10.4,-,N/A,,Mostly Cloudy,250,2012-12-29 22:53:00
6:53 PM,75.0,70.0,84,30.01,10.0,West,9.2,-,N/A,,Clear,260,2012-12-29 23:53:00
7:53 PM,73.9,70.0,87,30.04,10.0,West,9.2,-,N/A,,Mostly Cloudy,270,2012-12-30 00:53:00
8:13 PM,73.4,69.8,88,30.04,10.0,West,11.5,-,N/A,,Mostly Cloudy,280,2012-12-30 01:13:00
8:34 PM,73.4,69.8,88,30.06,10.0,WNW,11.5,-,N/A,,Mostly Cloudy,290,2012-12-30 01:34:00
8:53 PM,73.0,70.0,90,30.06,10.0,West,9.2,-,N/A,,Overcast,280,2012-12-30 01:53:00
9:08 PM,73.4,69.8,88,30.06,10.0,West,9.2,-,N/A,,Mostly Cloudy,270,2012-12-30 02:08:00
9:53 PM,70.0,66.0,87,30.08,10.0,WNW,10.4,-,N/A,,Clear,300,2012-12-30 02:53:00
10:53 PM,66.9,63.0,87,30.11,10.0,NW,11.5,-,N/A,,Clear,320,2012-12-30 03:53:00
11:53 PM,66.0,62.1,87,30.12,10.0,NNW,15.0,-,N/A,,Partly Cloudy,330,2012-12-30 04:53:00